| time (UTC) | temp C | wind direction | speed KPH | gust KPH | rain 1hr cm | rain 24hr cm | rain mn cm | humidity % | barometer mb |
| 20260905081646 | 26 | 234 | 0.0 | 1.6 | 0.00 | 0.00 | 0.00 | 93 | 1012.2 |
| 20260905081146 | 26 | 207 | 0.0 | 1.6 | 0.00 | 0.00 | 0.00 | 93 | 1012.2 |
| 20260905080647 | 26 | 294 | 3.2 | 3.2 | 0.00 | 0.00 | 0.00 | 93 | 1012.2 |
| 20260905080147 | 26 | 275 | 3.2 | 3.2 | 0.00 | 0.00 | 0.00 | 93 | 1011.9 |
| 20260905075647 | 26 | 230 | 0.0 | 3.2 | 0.00 | 0.00 | 0.00 | 93 | 1012.2 |
| 20260905075147 | 26 | 221 | 1.6 | 3.2 | 0.00 | 0.00 | 0.00 | 93 | 1012.2 |
| 20260905074647 | 26 | 236 | 1.6 | 4.8 | 0.00 | 0.00 | 0.00 | 93 | 1012.2 |
| 20260905074146 | 26 | 326 | 0.0 | 3.2 | 0.00 | 0.00 | 0.00 | 93 | 1012.5 |
| 20260905073646 | 26 | 282 | 0.0 | 3.2 | 0.00 | 0.00 | 0.00 | 93 | 1012.2 |
| 20260905073146 | 25 | 224 | 0.0 | 3.2 | 0.00 | 0.00 | 0.00 | 93 | 1012.2 |
| 20260905072646 | 26 | 230 | 3.2 | 4.8 | 0.00 | 0.00 | 0.00 | 93 | 1012.2 |
| 20260905071742 | 26 | 278 | 1.6 | 6.4 | 0.00 | 0.00 | 0.00 | 93 | 1012.2 |
| 20260905071146 | 26 | 235 | 3.2 | 4.8 | 0.00 | 0.00 | 0.00 | 94 | 1012.5 |
| 20260905070646 | 26 | 277 | 1.6 | 6.4 | 0.00 | 0.00 | 0.00 | 94 | 1012.2 |
| 20260905070146 | 26 | 284 | 0.0 | 4.8 | 0.00 | 0.00 | 0.00 | 94 | 1012.2 |
| 20260905065646 | 26 | 208 | 3.2 | 4.8 | 0.00 | 0.00 | 0.00 | 94 | 1012.2 |
| 20260905065146 | 26 | 218 | 3.2 | 6.4 | 0.00 | 0.00 | 0.00 | 94 | 1011.9 |
| 20260905064647 | 26 | 238 | 4.8 | 8.0 | 0.00 | 0.00 | 0.00 | 94 | 1012.2 |
| 20260905064147 | 26 | 190 | 8.0 | 8.0 | 0.00 | 0.00 | 0.00 | 93 | 1012.2 |
| 20260905063647 | 26 | 175 | 4.8 | 6.4 | 0.00 | 0.00 | 0.00 | 93 | 1011.9 |
| 20260905063146 | 26 | 196 | 4.8 | 4.8 | 0.00 | 0.00 | 0.00 | 93 | 1011.9 |
| 20260905062646 | 26 | 207 | 3.2 | 6.4 | 0.00 | 0.00 | 0.00 | 93 | 1012.2 |
| 20260905062146 | 26 | 232 | 3.2 | 4.8 | 0.00 | 0.00 | 0.00 | 93 | 1012.2 |
| 20260905061648 | 26 | 223 | 3.2 | 4.8 | 0.00 | 0.00 | 0.00 | 93 | 1012.2 |
| 20260905061146 | 26 | 240 | 3.2 | 4.8 | 0.00 | 0.00 | 0.00 | 92 | 1012.5 |
| 20260905060647 | 26 | 272 | 3.2 | 3.2 | 0.00 | 0.00 | 0.00 | 93 | 1012.5 |
| 20260905060147 | 26 | 280 | 1.6 | 3.2 | 0.00 | 0.00 | 0.00 | 93 | 1012.2 |
| 20260905055646 | 26 | 330 | 0.0 | 3.2 | 0.00 | 0.00 | 0.00 | 93 | 1012.5 |
| 20260905055147 | 26 | 304 | 0.0 | 3.2 | 0.00 | 0.00 | 0.00 | 93 | 1012.2 |
| 20260905054646 | 26 | 232 | 0.0 | 1.6 | 0.00 | 0.00 | 0.00 | 93 | 1012.2 |
| 20260905054146 | 26 | 224 | 0.0 | 3.2 | 0.00 | 0.00 | 0.00 | 93 | 1012.2 |
| 20260905053646 | 26 | 180 | 3.2 | 3.2 | 0.00 | 0.00 | 0.00 | 93 | 1012.2 |
| 20260905053146 | 26 | 213 | 1.6 | 4.8 | 0.00 | 0.00 | 0.00 | 93 | 1012.5 |
| 20260905052646 | 26 | 185 | 3.2 | 4.8 | 0.00 | 0.00 | 0.00 | 93 | 1012.9 |
| 20260905052147 | 26 | 188 | 3.2 | 4.8 | 0.00 | 0.00 | 0.00 | 93 | 1012.5 |
| 20260905051646 | 26 | 193 | 3.2 | 3.2 | 0.00 | 0.00 | 0.00 | 93 | 1012.9 |
| 20260905051146 | 26 | 160 | 3.2 | 4.8 | 0.00 | 0.00 | 0.00 | 94 | 1012.9 |
| 20260905050202 | 26 | 207 | 3.2 | 4.8 | 0.00 | 0.00 | 0.00 | 92 | 1012.9 |
| 20260905045646 | 26 | 208 | 3.2 | 4.8 | 0.00 | 0.00 | 0.91 | 92 | 1012.9 |
| 20260905045147 | 26 | 201 | 1.6 | 4.8 | 0.00 | 0.00 | 0.91 | 92 | 1012.9 |
| 20260905044646 | 26 | 225 | 0.0 | 4.8 | 0.00 | 0.00 | 0.91 | 92 | 1012.5 |
| 20260905044147 | 26 | 221 | 1.6 | 3.2 | 0.00 | 0.00 | 0.91 | 92 | 1012.9 |
| 20260905043646 | 26 | 223 | 1.6 | 4.8 | 0.00 | 0.00 | 0.91 | 92 | 1012.5 |
| 20260905043146 | 26 | 198 | 4.8 | 4.8 | 0.00 | 0.00 | 0.91 | 92 | 1012.5 |
| 20260905042647 | 27 | 214 | 1.6 | 3.2 | 0.00 | 0.00 | 0.91 | 91 | 1012.5 |
| 20260905042146 | 27 | 241 | 3.2 | 4.8 | 0.00 | 0.00 | 0.91 | 91 | 1012.5 |
| 20260905041646 | 27 | 190 | 1.6 | 3.2 | 0.00 | 0.00 | 0.91 | 91 | 1012.9 |
| 20260905041147 | 27 | 174 | 0.0 | 4.8 | 0.00 | 0.00 | 0.91 | 90 | 1012.9 |
| 20260905040646 | 27 | 125 | 0.0 | 3.2 | 0.00 | 0.00 | 0.91 | 90 | 1012.9 |
| 20260905040146 | 27 | 39 | 1.6 | 4.8 | 0.00 | 0.00 | 0.91 | 89 | 1012.9 |
| 20260905035646 | 27 | 360 | 0.0 | 4.8 | 0.00 | 0.00 | 0.91 | 88 | 1012.9 |
| 20260905035147 | 27 | 129 | 0.0 | 1.6 | 0.00 | 0.00 | 0.91 | 88 | 1012.9 |
| 20260905034647 | 27 | 154 | 0.0 | 0.0 | 0.00 | 0.00 | 0.91 | 88 | 1012.9 |
| 20260905034146 | 27 | 151 | 1.6 | 3.2 | 0.00 | 0.00 | 0.91 | 88 | 1013.2 |
| 20260905033646 | 27 | 176 | 3.2 | 3.2 | 0.00 | 0.00 | 0.91 | 88 | 1013.2 |
| 20260905033148 | 27 | 171 | 1.6 | 3.2 | 0.00 | 0.00 | 0.91 | 88 | 1012.9 |
| 20260905032647 | 27 | 149 | 0.0 | 4.8 | 0.00 | 0.00 | 0.91 | 88 | 1012.9 |
| 20260905032146 | 27 | 189 | 3.2 | 4.8 | 0.00 | 0.00 | 0.91 | 88 | 1012.9 |
| 20260905031646 | 27 | 180 | 4.8 | 6.4 | 0.00 | 0.00 | 0.91 | 87 | 1013.2 |
| 20260905031147 | 27 | 164 | 1.6 | 8.0 | 0.00 | 0.00 | 0.91 | 87 | 1013.5 |
| 20260905030646 | 27 | 174 | 8.0 | 9.7 | 0.00 | 0.00 | 0.91 | 87 | 1013.5 |
| 20260905030147 | 27 | 209 | 3.2 | 4.8 | 0.00 | 0.00 | 0.91 | 88 | 1013.5 |
| 20260905025647 | 27 | 194 | 3.2 | 4.8 | 0.00 | 0.00 | 0.91 | 87 | 1013.5 |
| 20260905025146 | 27 | 176 | 3.2 | 4.8 | 0.00 | 0.00 | 0.91 | 87 | 1013.5 |
| 20260905024646 | 27 | 174 | 4.8 | 4.8 | 0.00 | 0.00 | 0.91 | 87 | 1013.5 |
| 20260905024147 | 27 | 165 | 3.2 | 4.8 | 0.00 | 0.00 | 0.91 | 88 | 1013.5 |
| 20260905023647 | 27 | 180 | 3.2 | 4.8 | 0.00 | 0.00 | 0.91 | 88 | 1013.5 |
| 20260905023146 | 27 | 175 | 1.6 | 6.4 | 0.00 | 0.00 | 0.91 | 87 | 1013.5 |
| 20260905022646 | 27 | 240 | 1.6 | 3.2 | 0.00 | 0.00 | 0.91 | 88 | 1013.2 |
| 20260905022146 | 27 | 211 | 1.6 | 3.2 | 0.00 | 0.00 | 0.91 | 88 | 1013.5 |
| 20260905021646 | 27 | 183 | 1.6 | 6.4 | 0.00 | 0.00 | 0.91 | 87 | 1013.2 |
| 20260905021146 | 28 | 187 | 3.2 | 6.4 | 0.00 | 0.00 | 0.91 | 87 | 1013.2 |
| 20260905020646 | 28 | 212 | 3.2 | 6.4 | 0.00 | 0.00 | 0.91 | 86 | 1013.2 |
| 20260905020146 | 28 | 201 | 1.6 | 4.8 | 0.00 | 0.00 | 0.91 | 85 | 1013.2 |
| 20260905015647 | 28 | 214 | 3.2 | 4.8 | 0.00 | 0.00 | 0.91 | 84 | 1013.2 |
| 20260905015146 | 28 | 187 | 3.2 | 3.2 | 0.00 | 0.00 | 0.91 | 84 | 1012.9 |
| 20260905014646 | 28 | 171 | 3.2 | 3.2 | 0.00 | 0.00 | 0.91 | 84 | 1012.9 |
| 20260905014146 | 28 | 180 | 1.6 | 3.2 | 0.00 | 0.00 | 0.91 | 83 | 1013.2 |
| 20260905013646 | 28 | 117 | 0.0 | 3.2 | 0.00 | 0.00 | 0.91 | 83 | 1012.9 |
| 20260905013146 | 28 | 162 | 1.6 | 3.2 | 0.00 | 0.00 | 0.91 | 82 | 1012.9 |
| 20260905012646 | 28 | 121 | 1.6 | 4.8 | 0.00 | 0.00 | 0.91 | 82 | 1012.9 |
| 20260905012146 | 28 | 179 | 3.2 | 3.2 | 0.00 | 0.00 | 0.91 | 81 | 1012.9 |
| 20260905011646 | 28 | 60 | 0.0 | 3.2 | 0.00 | 0.00 | 0.91 | 82 | 1012.9 |
| 20260905011146 | 28 | 22 | 0.0 | 1.6 | 0.00 | 0.00 | 0.91 | 82 | 1012.9 |
| 20260905010646 | 28 | 174 | 3.2 | 4.8 | 0.00 | 0.00 | 0.91 | 82 | 1012.9 |
| 20260905010146 | 28 | 181 | 3.2 | 3.2 | 0.00 | 0.00 | 0.91 | 82 | 1012.9 |
| 20260905005646 | 28 | 187 | 1.6 | 4.8 | 0.00 | 0.00 | 0.91 | 82 | 1012.9 |
| 20260905005147 | 28 | 189 | 3.2 | 4.8 | 0.00 | 0.00 | 0.91 | 82 | 1012.9 |
| 20260905004647 | 28 | 206 | 3.2 | 4.8 | 0.00 | 0.00 | 0.91 | 82 | 1012.9 |
| 20260905004147 | 28 | 186 | 1.6 | 4.8 | 0.00 | 0.00 | 0.91 | 83 | 1013.2 |
| 20260905003646 | 28 | 165 | 3.2 | 6.4 | 0.00 | 0.00 | 0.91 | 82 | 1012.9 |
| 20260905003146 | 28 | 156 | 4.8 | 4.8 | 0.00 | 0.00 | 0.91 | 81 | 1012.5 |
| 20260905002647 | 28 | 179 | 4.8 | 6.4 | 0.00 | 0.00 | 0.91 | 81 | 1012.9 |
| 20260905002146 | 28 | 172 | 3.2 | 8.0 | 0.00 | 0.00 | 0.91 | 81 | 1012.9 |
| 20260905001646 | 28 | 174 | 3.2 | 8.0 | 0.00 | 0.00 | 0.91 | 81 | 1012.9 |
| 20260905001146 | 28 | 145 | 3.2 | 8.0 | 0.00 | 0.00 | 0.91 | 81 | 1012.9 |
| 20260905000646 | 28 | 154 | 4.8 | 6.4 | 0.00 | 0.00 | 0.91 | 80 | 1012.9 |
| 20260905000147 | 28 | 165 | 4.8 | 9.7 | 0.00 | 0.00 | 0.91 | 81 | 1012.9 |
| 20260904235646 | 29 | 165 | 6.4 | 6.4 | 0.00 | 0.00 | 0.91 | 80 | 1012.9 |
| 20260904235146 | 30 | 157 | 1.6 | 6.4 | 0.00 | 0.00 | 0.91 | 78 | 1012.9 |
| 20260904234646 | 30 | 37 | 3.2 | 4.8 | 0.00 | 0.00 | 0.91 | 76 | 1012.9 |
| 20260904234146 | 30 | 334 | 3.2 | 4.8 | 0.00 | 0.00 | 0.91 | 76 | 1012.9 |
| 20260904233646 | 30 | 3 | 4.8 | 8.0 | 0.00 | 0.00 | 0.91 | 75 | 1012.5 |
| 20260904233146 | 30 | 351 | 3.2 | 6.4 | 0.00 | 0.00 | 0.91 | 75 | 1012.5 |
| 20260904232647 | 30 | 312 | 4.8 | 8.0 | 0.00 | 0.00 | 0.91 | 75 | 1012.5 |
| 20260904232146 | 30 | 286 | 6.4 | 6.4 | 0.00 | 0.00 | 0.91 | 73 | 1012.5 |
| 20260904231647 | 30 | 5 | 1.6 | 6.4 | 0.00 | 0.00 | 0.91 | 73 | 1012.5 |
| 20260904231146 | 30 | 354 | 3.2 | 8.0 | 0.00 | 0.00 | 0.91 | 73 | 1012.5 |
| 20260904230647 | 30 | 352 | 3.2 | 8.0 | 0.00 | 0.00 | 0.91 | 73 | 1012.5 |
| 20260904230147 | 31 | 347 | 6.4 | 11.3 | 0.00 | 0.00 | 0.91 | 71 | 1012.9 |
| 20260904225647 | 31 | 39 | 3.2 | 8.0 | 0.00 | 0.00 | 0.91 | 71 | 1012.5 |
| 20260904225146 | 31 | 321 | 3.2 | 8.0 | 0.00 | 0.00 | 0.91 | 70 | 1012.5 |
| 20260904224646 | 31 | 307 | 4.8 | 6.4 | 0.00 | 0.00 | 0.91 | 70 | 1012.5 |
| 20260904224147 | 31 | 76 | 3.2 | 9.7 | 0.00 | 0.00 | 0.91 | 72 | 1012.2 |
| 20260904223646 | 30 | 25 | 6.4 | 14.5 | 0.00 | 0.00 | 0.91 | 72 | 1012.5 |
| 20260904223147 | 30 | 353 | 6.4 | 11.3 | 0.00 | 0.00 | 0.91 | 73 | 1012.5 |
| 20260904222647 | 31 | 356 | 8.0 | 11.3 | 0.00 | 0.00 | 0.91 | 71 | 1012.5 |
| 20260904222147 | 31 | 347 | 4.8 | 9.7 | 0.00 | 0.00 | 0.91 | 69 | 1012.2 |
| 20260904221646 | 31 | 355 | 4.8 | 11.3 | 0.00 | 0.00 | 0.91 | 71 | 1012.2 |
| 20260904221146 | 30 | 332 | 6.4 | 9.7 | 0.00 | 0.00 | 0.91 | 73 | 1012.2 |
| 20260904220647 | 30 | 25 | 8.0 | 14.5 | 0.00 | 0.00 | 0.91 | 73 | 1012.2 |
| 20260904220146 | 30 | 343 | 8.0 | 11.3 | 0.00 | 0.00 | 0.91 | 72 | 1012.2 |
| 20260904215647 | 31 | 18 | 4.8 | 12.9 | 0.00 | 0.00 | 0.91 | 71 | 1012.2 |
| 20260904215146 | 30 | 335 | 6.4 | 14.5 | 0.00 | 0.00 | 0.91 | 72 | 1012.5 |
| 20260904214647 | 30 | 312 | 9.7 | 14.5 | 0.00 | 0.00 | 0.91 | 73 | 1012.5 |
| 20260904214146 | 30 | 45 | 4.8 | 11.3 | 0.00 | 0.00 | 0.91 | 72 | 1012.5 |
| 20260904213646 | 30 | 45 | 6.4 | 16.1 | 0.00 | 0.00 | 0.91 | 71 | 1012.2 |
| 20260904213146 | 30 | 337 | 4.8 | 11.3 | 0.00 | 0.00 | 0.91 | 70 | 1012.2 |
| 20260904212646 | 31 | 358 | 8.0 | 12.9 | 0.00 | 0.00 | 0.91 | 70 | 1012.5 |
| 20260904212146 | 31 | 340 | 8.0 | 12.9 | 0.00 | 0.00 | 0.91 | 70 | 1012.5 |
| 20260904211647 | 31 | 35 | 4.8 | 11.3 | 0.00 | 0.00 | 0.91 | 68 | 1012.5 |
| 20260904211147 | 31 | 3 | 4.8 | 16.1 | 0.00 | 0.00 | 0.91 | 68 | 1012.5 |
| 20260904210646 | 31 | 345 | 8.0 | 12.9 | 0.00 | 0.00 | 0.91 | 69 | 1012.9 |
| 20260904210146 | 31 | 354 | 6.4 | 11.3 | 0.00 | 0.00 | 0.91 | 71 | 1012.5 |
| 20260904205647 | 30 | 353 | 4.8 | 14.5 | 0.00 | 0.00 | 0.91 | 71 | 1012.2 |
| 20260904205147 | 31 | 342 | 6.4 | 12.9 | 0.00 | 0.00 | 0.91 | 72 | 1012.2 |
| 20260904204646 | 31 | 336 | 6.4 | 11.3 | 0.00 | 0.00 | 0.91 | 72 | 1012.5 |
| 20260904204146 | 30 | 348 | 6.4 | 11.3 | 0.00 | 0.00 | 0.91 | 71 | 1012.5 |
| 20260904203646 | 30 | 354 | 8.0 | 14.5 | 0.00 | 0.00 | 0.91 | 71 | 1012.5 |
| 20260904203146 | 30 | 39 | 8.0 | 12.9 | 0.00 | 0.00 | 0.91 | 73 | 1012.5 |
| 20260904202646 | 30 | 11 | 8.0 | 12.9 | 0.00 | 0.00 | 0.91 | 73 | 1012.5 |
| 20260904202148 | 30 | 345 | 4.8 | 12.9 | 0.00 | 0.00 | 0.91 | 72 | 1012.9 |
| 20260904201647 | 31 | 31 | 8.0 | 12.9 | 0.00 | 0.00 | 0.91 | 70 | 1012.9 |
| 20260904201146 | 31 | 356 | 9.7 | 9.7 | 0.00 | 0.00 | 0.91 | 69 | 1012.9 |
| 20260904200647 | 31 | 61 | 11.3 | 14.5 | 0.00 | 0.00 | 0.91 | 70 | 1012.9 |
| 20260904200146 | 31 | 339 | 3.2 | 11.3 | 0.00 | 0.00 | 0.91 | 70 | 1012.9 |
| 20260904195647 | 30 | 338 | 4.8 | 8.0 | 0.00 | 0.00 | 0.91 | 72 | 1012.9 |
| 20260904195147 | 30 | 4 | 6.4 | 14.5 | 0.00 | 0.00 | 0.91 | 73 | 1013.2 |
| 20260904194646 | 30 | 52 | 3.2 | 12.9 | 0.00 | 0.00 | 0.91 | 73 | 1012.9 |
| 20260904194146 | 30 | 323 | 4.8 | 14.5 | 0.00 | 0.00 | 0.91 | 74 | 1013.2 |
| 20260904193646 | 30 | 46 | 11.3 | 14.5 | 0.00 | 0.00 | 0.91 | 73 | 1013.2 |
| 20260904193146 | 30 | 5 | 4.8 | 12.9 | 0.00 | 0.00 | 0.91 | 75 | 1013.5 |
| 20260904192647 | 30 | 53 | 11.3 | 17.7 | 0.00 | 0.00 | 0.91 | 74 | 1013.5 |
| 20260904192147 | 30 | 48 | 11.3 | 14.5 | 0.00 | 0.00 | 0.91 | 76 | 1013.5 |
| 20260904191648 | 30 | 42 | 11.3 | 16.1 | 0.00 | 0.00 | 0.91 | 75 | 1013.5 |
| 20260904191147 | 30 | 32 | 11.3 | 14.5 | 0.00 | 0.00 | 0.91 | 74 | 1013.5 |
| 20260904190647 | 30 | 354 | 4.8 | 14.5 | 0.00 | 0.00 | 0.91 | 76 | 1013.9 |
| 20260904190147 | 30 | 30 | 8.0 | 12.9 | 0.00 | 0.00 | 0.91 | 77 | 1013.9 |
| 20260904185646 | 30 | 350 | 8.0 | 14.5 | 0.00 | 0.00 | 0.91 | 78 | 1013.9 |
| 20260904185146 | 30 | 16 | 9.7 | 14.5 | 0.00 | 0.00 | 0.91 | 78 | 1013.9 |
| 20260904184646 | 30 | 36 | 11.3 | 17.7 | 0.00 | 0.00 | 0.91 | 79 | 1014.2 |
| 20260904184147 | 30 | 336 | 11.3 | 14.5 | 0.00 | 0.00 | 0.91 | 78 | 1014.2 |
| 20260904183647 | 30 | 359 | 6.4 | 16.1 | 0.00 | 0.00 | 0.91 | 77 | 1014.2 |
| 20260904183146 | 30 | 350 | 11.3 | 17.7 | 0.00 | 0.00 | 0.91 | 79 | 1014.2 |
| 20260904182646 | 30 | 22 | 9.7 | 11.3 | 0.00 | 0.00 | 0.91 | 77 | 1014.2 |
| 20260904182147 | 30 | 20 | 8.0 | 16.1 | 0.00 | 0.00 | 0.91 | 76 | 1014.2 |
| 20260904181646 | 30 | 326 | 4.8 | 14.5 | 0.00 | 0.00 | 0.91 | 77 | 1014.2 |
| 20260904181147 | 30 | 336 | 8.0 | 16.1 | 0.00 | 0.00 | 0.91 | 74 | 1014.6 |
| 20260904180647 | 30 | 353 | 4.8 | 14.5 | 0.00 | 0.00 | 0.91 | 75 | 1014.6 |
| 20260904180148 | 30 | 11 | 12.9 | 14.5 | 0.00 | 0.00 | 0.91 | 77 | 1014.6 |
| 20260904175647 | 30 | 346 | 9.7 | 14.5 | 0.00 | 0.00 | 0.91 | 76 | 1014.6 |
| 20260904175147 | 29 | 20 | 6.4 | 16.1 | 0.00 | 0.00 | 0.91 | 77 | 1014.6 |
| 20260904174647 | 29 | 47 | 11.3 | 14.5 | 0.00 | 0.00 | 0.91 | 77 | 1014.6 |
| 20260904174148 | 28 | 8 | 6.4 | 11.3 | 0.00 | 0.00 | 0.91 | 80 | 1014.9 |
| 20260904173647 | 28 | 41 | 12.9 | 17.7 | 0.00 | 0.00 | 0.91 | 80 | 1014.6 |
| 20260904173147 | 28 | 21 | 9.7 | 12.9 | 0.00 | 0.00 | 0.91 | 81 | 1014.6 |
| 20260904172646 | 28 | 44 | 4.8 | 11.3 | 0.00 | 0.00 | 0.91 | 82 | 1014.6 |
| 20260904172146 | 28 | 33 | 9.7 | 12.9 | 0.00 | 0.00 | 0.91 | 81 | 1014.6 |
| 20260904171646 | 28 | 7 | 3.2 | 14.5 | 0.00 | 0.00 | 0.91 | 83 | 1014.6 |
| 20260904171146 | 28 | 24 | 11.3 | 17.7 | 0.00 | 0.00 | 0.91 | 83 | 1014.6 |
| 20260904170646 | 28 | 345 | 1.6 | 16.1 | 0.00 | 0.00 | 0.91 | 84 | 1014.9 |
| 20260904170147 | 28 | 11 | 6.4 | 12.9 | 0.00 | 0.00 | 0.91 | 83 | 1014.2 |
| 20260904165646 | 28 | 51 | 8.0 | 14.5 | 0.00 | 0.00 | 0.91 | 81 | 1014.6 |
| 20260904165147 | 28 | 8 | 4.8 | 8.0 | 0.00 | 0.00 | 0.91 | 82 | 1014.6 |
| 20260904164646 | 28 | 27 | 9.7 | 16.1 | 0.00 | 0.00 | 0.91 | 82 | 1014.6 |
| 20260904164146 | 28 | 38 | 9.7 | 12.9 | 0.00 | 0.00 | 0.91 | 81 | 1014.9 |
| 20260904163646 | 28 | 1 | 3.2 | 12.9 | 0.00 | 0.00 | 0.91 | 82 | 1014.9 |
| 20260904163146 | 28 | 29 | 8.0 | 11.3 | 0.00 | 0.00 | 0.91 | 82 | 1015.2 |
| 20260904162646 | 28 | 23 | 8.0 | 8.0 | 0.00 | 0.00 | 0.91 | 83 | 1015.2 |
| 20260904162146 | 28 | 36 | 6.4 | 14.5 | 0.00 | 0.00 | 0.91 | 83 | 1014.9 |
| 20260904161646 | 28 | 35 | 6.4 | 11.3 | 0.00 | 0.00 | 0.91 | 83 | 1015.2 |
| 20260904161147 | 28 | 33 | 6.4 | 9.7 | 0.00 | 0.00 | 0.91 | 83 | 1015.2 |
| 20260904160647 | 28 | 355 | 4.8 | 8.0 | 0.00 | 0.00 | 0.91 | 84 | 1015.2 |
| 20260904160146 | 28 | 348 | 3.2 | 9.7 | 0.00 | 0.00 | 0.91 | 84 | 1015.2 |
| 20260904155649 | 28 | 358 | 3.2 | 11.3 | 0.00 | 0.00 | 0.91 | 85 | 1015.2 |
| 20260904155146 | 28 | 324 | 8.0 | 12.9 | 0.00 | 0.00 | 0.91 | 84 | 1015.2 |
| 20260904154646 | 28 | 53 | 8.0 | 12.9 | 0.00 | 0.00 | 0.91 | 85 | 1015.2 |
| 20260904154149 | 28 | 16 | 8.0 | 8.0 | 0.00 | 0.00 | 0.91 | 86 | 1014.9 |
| 20260904153647 | 28 | 354 | 3.2 | 11.3 | 0.00 | 0.00 | 0.91 | 86 | 1014.9 |
| 20260904153149 | 28 | 20 | 4.8 | 8.0 | 0.00 | 0.00 | 0.91 | 88 | 1014.9 |
| 20260904152646 | 27 | 350 | 4.8 | 9.7 | 0.00 | 0.00 | 0.91 | 88 | 1014.9 |
| 20260904152146 | 27 | 350 | 4.8 | 9.7 | 0.00 | 0.00 | 0.91 | 88 | 1014.9 |
| 20260904151646 | 27 | 14 | 4.8 | 9.7 | 0.00 | 0.00 | 0.91 | 89 | 1015.2 |
| 20260904151147 | 27 | 360 | 4.8 | 9.7 | 0.00 | 0.00 | 0.91 | 89 | 1015.2 |
| 20260904150646 | 27 | 12 | 4.8 | 9.7 | 0.00 | 0.00 | 0.91 | 89 | 1015.2 |
| 20260904150146 | 27 | 350 | 3.2 | 11.3 | 0.00 | 0.00 | 0.91 | 88 | 1015.2 |
| 20260904145646 | 27 | 340 | 4.8 | 6.4 | 0.00 | 0.00 | 0.91 | 88 | 1015.2 |
| 20260904145146 | 27 | 46 | 6.4 | 8.0 | 0.00 | 0.00 | 0.91 | 87 | 1014.9 |
| 20260904144647 | 27 | 360 | 3.2 | 8.0 | 0.00 | 0.00 | 0.91 | 87 | 1014.9 |
| 20260904144148 | 27 | 4 | 4.8 | 8.0 | 0.00 | 0.00 | 0.91 | 88 | 1015.2 |
| 20260904143647 | 27 | 45 | 6.4 | 9.7 | 0.00 | 0.00 | 0.91 | 88 | 1014.9 |
| 20260904143146 | 27 | 48 | 6.4 | 8.0 | 0.00 | 0.00 | 0.91 | 89 | 1014.9 |
| 20260904142646 | 26 | 303 | 3.2 | 9.7 | 0.00 | 0.00 | 0.91 | 90 | 1014.9 |
| 20260904142146 | 26 | 61 | 6.4 | 8.0 | 0.00 | 0.00 | 0.91 | 90 | 1014.9 |
| 20260904141648 | 26 | 69 | 3.2 | 4.8 | 0.00 | 0.00 | 0.91 | 90 | 1014.9 |
| 20260904141146 | 26 | 70 | 4.8 | 6.4 | 0.00 | 0.00 | 0.91 | 90 | 1014.9 |
| 20260904140647 | 26 | 47 | 4.8 | 8.0 | 0.00 | 0.00 | 0.91 | 90 | 1014.6 |
| 20260904140147 | 26 | 96 | 1.6 | 6.4 | 0.00 | 0.00 | 0.91 | 90 | 1014.9 |
| 20260904135647 | 26 | 26 | 0.0 | 3.2 | 0.00 | 0.00 | 0.91 | 90 | 1014.9 |
| 20260904135146 | 25 | 67 | 3.2 | 6.4 | 0.00 | 0.00 | 0.91 | 90 | 1014.9 |
| 20260904134647 | 25 | 7 | 4.8 | 9.7 | 0.00 | 0.00 | 0.91 | 90 | 1014.6 |
| 20260904134147 | 25 | 100 | 4.8 | 8.0 | 0.00 | 0.00 | 0.91 | 91 | 1014.6 |
| 20260904133646 | 25 | 342 | 4.8 | 9.7 | 0.00 | 0.00 | 0.91 | 92 | 1014.2 |
| 20260904133147 | 25 | 340 | 11.3 | 16.1 | 0.00 | 0.00 | 0.91 | 92 | 1014.2 |
| 20260904132647 | 24 | 320 | 6.4 | 12.9 | 0.00 | 0.00 | 0.91 | 92 | 1014.2 |
| 20260904132146 | 24 | 298 | 8.0 | 9.7 | 0.00 | 0.00 | 0.91 | 92 | 1014.2 |
| 20260904131646 | 24 | 316 | 3.2 | 8.0 | 0.00 | 0.00 | 0.91 | 93 | 1014.2 |
| 20260904131147 | 24 | 305 | 6.4 | 9.7 | 0.00 | 0.00 | 0.91 | 92 | 1014.2 |
| 20260904130646 | 23 | 8 | 4.8 | 11.3 | 0.00 | 0.00 | 0.91 | 94 | 1014.2 |
| 20260904130146 | 23 | 317 | 1.6 | 6.4 | 0.00 | 0.00 | 0.91 | 94 | 1014.2 |
| 20260904125647 | 23 | 275 | 3.2 | 6.4 | 0.00 | 0.00 | 0.91 | 94 | 1014.2 |
| 20260904125147 | 23 | 314 | 4.8 | 8.0 | 0.00 | 0.00 | 0.91 | 94 | 1014.2 |
| 20260904124648 | 23 | 293 | 3.2 | 8.0 | 0.00 | 0.00 | 0.91 | 95 | 1014.2 |
| 20260904124147 | 23 | 294 | 3.2 | 4.8 | 0.05 | 0.00 | 0.91 | 95 | 1014.2 |
| 20260904123647 | 23 | 229 | 3.2 | 6.4 | 0.05 | 0.00 | 0.91 | 94 | 1014.2 |
| 20260904123146 | 23 | 282 | 4.8 | 8.0 | 0.00 | 0.00 | 0.91 | 94 | 1014.2 |
| 20260904122647 | 23 | 335 | 9.7 | 14.5 | 0.05 | 0.00 | 0.91 | 94 | 1014.2 |
| 20260904122147 | 23 | 339 | 11.3 | 14.5 | 0.13 | 0.00 | 0.91 | 95 | 1014.2 |
| 20260904121646 | 23 | 347 | 9.7 | 19.3 | 0.05 | 0.00 | 0.89 | 95 | 1014.2 |
| 20260904121148 | 23 | 349 | 4.8 | 11.3 | 0.05 | 0.00 | 0.89 | 94 | 1014.2 |
| 20260904120646 | 23 | 294 | 4.8 | 11.3 | 0.23 | 0.00 | 0.89 | 93 | 1013.9 |
| 20260904120147 | 23 | 357 | 8.0 | 12.9 | 0.36 | 0.00 | 0.89 | 93 | 1013.9 |
| 20260904115647 | 23 | 356 | 6.4 | 14.5 | 0.97 | 0.00 | 0.86 | 95 | 1013.9 |
| 20260904115148 | 23 | 25 | 11.3 | 14.5 | 2.11 | 0.00 | 0.81 | 94 | 1014.2 |
| 20260904114647 | 23 | 357 | 8.0 | 16.1 | 2.03 | 0.00 | 0.66 | 93 | 1013.9 |
| 20260904114146 | 23 | 17 | 8.0 | 16.1 | 1.80 | 0.00 | 0.46 | 95 | 1013.9 |
| 20260904113650 | 23 | 34 | 14.5 | 17.7 | 1.63 | 0.00 | 0.28 | 95 | 1013.5 |
| 20260904113146 | 23 | 59 | 3.2 | 14.5 | 0.66 | 0.00 | 0.10 | 90 | 1013.5 |
| 20260904112646 | 24 | 352 | 9.7 | 16.1 | 0.00 | 0.00 | 0.00 | 87 | 1013.5 |
| 20260904112146 | 24 | 7 | 8.0 | 14.5 | 0.00 | 0.00 | 0.00 | 87 | 1013.5 |
| 20260904111646 | 24 | 334 | 11.3 | 14.5 | 0.00 | 0.00 | 0.00 | 90 | 1013.5 |
| 20260904111146 | 25 | 315 | 8.0 | 16.1 | 0.00 | 0.00 | 0.00 | 90 | 1013.9 |
| 20260904110646 | 25 | 283 | 8.0 | 11.3 | 0.00 | 0.00 | 0.00 | 86 | 1013.9 |
| 20260904110148 | 26 | 328 | 8.0 | 12.9 | 0.00 | 0.00 | 0.00 | 84 | 1013.5 |
| 20260904105647 | 26 | 338 | 6.4 | 16.1 | 0.00 | 0.00 | 0.00 | 82 | 1013.5 |
| 20260904105146 | 26 | 325 | 12.9 | 20.9 | 0.00 | 0.00 | 0.00 | 86 | 1013.5 |
| 20260904104647 | 26 | 352 | 6.4 | 9.7 | 0.00 | 0.00 | 0.00 | 94 | 1013.5 |
| 20260904104146 | 26 | 315 | 0.0 | 3.2 | 0.00 | 0.00 | 0.00 | 95 | 1013.5 |
| 20260904103647 | 26 | 248 | 3.2 | 6.4 | 0.00 | 0.00 | 0.00 | 94 | 1013.2 |
| 20260904103148 | 26 | 273 | 3.2 | 3.2 | 0.00 | 0.00 | 0.00 | 95 | 1013.2 |
| 20260904102647 | 26 | 301 | 1.6 | 3.2 | 0.00 | 0.00 | 0.00 | 95 | 1012.9 |
| 20260904102146 | 26 | 237 | 3.2 | 4.8 | 0.00 | 0.00 | 0.00 | 95 | 1012.9 |
| 20260904101647 | 26 | 213 | 3.2 | 4.8 | 0.00 | 0.00 | 0.00 | 95 | 1012.9 |
| 20260904101147 | 26 | 193 | 3.2 | 4.8 | 0.00 | 0.00 | 0.00 | 94 | 1013.2 |
| 20260904100646 | 26 | 208 | 3.2 | 4.8 | 0.00 | 0.00 | 0.00 | 94 | 1012.9 |
| 20260904100147 | 26 | 198 | 3.2 | 4.8 | 0.00 | 0.00 | 0.00 | 94 | 1012.9 |
| 20260904095646 | 26 | 195 | 3.2 | 4.8 | 0.00 | 0.00 | 0.00 | 93 | 1012.9 |
| 20260904095148 | 27 | 214 | 0.0 | 3.2 | 0.00 | 0.00 | 0.00 | 93 | 1012.9 |
| 20260904094647 | 27 | 297 | 1.6 | 1.6 | 0.00 | 0.00 | 0.00 | 93 | 1012.5 |
| 20260904094146 | 27 | 246 | 1.6 | 3.2 | 0.00 | 0.00 | 0.00 | 93 | 1012.9 |
| 20260904093646 | 26 | 287 | 1.6 | 4.8 | 0.00 | 0.00 | 0.00 | 93 | 1012.9 |
| 20260904093147 | 26 | 281 | 0.0 | 4.8 | 0.00 | 0.00 | 0.00 | 93 | 1012.9 |
| 20260904092646 | 26 | 214 | 0.0 | 4.8 | 0.00 | 0.00 | 0.00 | 93 | 1012.5 |
| 20260904092147 | 26 | 220 | 3.2 | 4.8 | 0.00 | 0.00 | 0.00 | 92 | 1012.9 |
| 20260904091647 | 26 | 267 | 3.2 | 4.8 | 0.00 | 0.00 | 0.00 | 93 | 1012.9 |
| 20260904091147 | 26 | 300 | 3.2 | 4.8 | 0.00 | 0.00 | 0.00 | 92 | 1012.9 |
| 20260904090647 | 26 | 310 | 3.2 | 4.8 | 0.00 | 0.00 | 0.00 | 92 | 1012.9 |
| 20260904090146 | 26 | 300 | 3.2 | 4.8 | 0.00 | 0.00 | 0.00 | 92 | 1012.9 |
| 20260904085647 | 26 | 285 | 4.8 | 4.8 | 0.00 | 0.00 | 0.00 | 93 | 1012.9 |
| 20260904085146 | 26 | 275 | 3.2 | 6.4 | 0.00 | 0.00 | 0.00 | 93 | 1012.9 |
| 20260904084647 | 26 | 282 | 4.8 | 4.8 | 0.00 | 0.00 | 0.00 | 93 | 1012.9 |
| 20260904084147 | 26 | 312 | 1.6 | 4.8 | 0.00 | 0.00 | 0.00 | 93 | 1012.9 |
| 20260904083646 | 27 | 287 | 3.2 | 3.2 | 0.00 | 0.00 | 0.00 | 93 | 1012.9 |
| 20260904083146 | 27 | 272 | 4.8 | 4.8 | 0.00 | 0.00 | 0.00 | 93 | 1013.2 |
| 20260904082646 | 26 | 258 | 0.0 | 3.2 | 0.00 | 0.00 | 0.00 | 93 | 1012.9 |
| 20260904082146 | 26 | 293 | 3.2 | 3.2 | 0.00 | 0.00 | 0.00 | 93 | 1012.9 |